Orbital Elements at Epoch 2459200.5 (2020-Dec-17.0) TDB
Reference: JPL 16 (heliocentric ecliptic J2000)
Element | Value | Uncertainty (1-sigma) | Units |
e | .2593622989403119 | 7.9579e-08 | |
a | 2.547174927065435 | 3.2906e-08 | au |
q | 1.886533782178623 | 1.8706e-07 | au |
i | 7.241930904535306 | 6.9737e-06 | deg |
node | 73.08306920542864 | 5.4801e-05 | deg |
peri | 299.1032198802671 | 5.7804e-05 | deg |
M | 332.2414846701527 | 2.9058e-05 | deg |
tp | 2459314.993364274028 (2021-Apr-10.49336427) | 0.00012138 | TDB |
period | 1484.863676924779 4.07 | 2.8774e-05 7.878e-08 | d yr |
n | .2424464990251337 | 4.6981e-09 | deg/d |
Q | 3.207816071952248 | 4.1441e-08 | au |
|
| | Orbit Determination Parameters
Additional Information
|